FW0288 Weather Reports


Display with metric or nautical units.
time (UTC)temp
F
wind
direction
speed
MPH
gust
MPH
rain 1hr
in
rain 24hr
in
rain mn
in
humidity
%
barometer
mb
20260505053002 46 160 0.0 1.0 0.00 0.14 0.14 83 1003.5
20260505051502 46 360 0.0 2.0 0.00 0.14 0.14 84 1003.6
20260505041605 46 221 0.0 1.0 0.02 0.14 0.14 87 1003.7
20260505040059 47 245 0.0 1.0 0.06 0.14 0.14 87 1003.6
20260505034558 47 219 0.0 1.0 0.12 0.14 0.14 87 1003.5
20260505033057 47 360 0.0 2.0 0.13 0.13 0.13 86 1003.7
20260505031555 48 258 0.0 1.0 0.12 0.12 0.12 85 1003.4
20260505030110 48 360 1.0 4.0 0.07 0.07 0.07 82 1003.1
20260505024551 49 360 0.0 3.0 0.02 0.02 0.02 78 1002.7
20260505023046 50 282 0.0 3.0 0.00 0.00 0.00 74 1002.3
20260505021544 50 288 0.0 1.0 0.00 0.00 0.00 72 1001.9
20260505020043 51 292 0.0 2.0 0.00 0.00 0.00 70 1002.1
20260505014602 51 284 0.0 1.0 0.00 0.00 0.00 68 1002.0
20260505013048 52 315 0.0 2.0 0.00 0.00 0.00 64 1001.7
20260505011541 56 360 2.0 12.0 0.00 0.00 0.00 54 1001.8
20260505010046 56 304 0.0 0.0 0.00 0.00 0.00 53 1001.2
20260505004546 57 355 0.0 4.0 0.00 0.00 0.00 53 1001.0
20260505003051 57 338 0.0 4.0 0.00 0.00 0.00 53 1000.9
20260505001533 59 298 0.0 2.0 0.00 0.00 0.00 48 1000.5
20260505000035 59 360 0.0 0.0 0.00 0.00 0.00 48 1000.4
20260504234532 59 279 0.0 0.0 0.00 0.00 0.00 47 1000.6
20260504233035 59 292 0.0 1.0 0.00 0.00 0.00 46 1000.4
20260504231530 59 332 0.0 6.0 0.00 0.00 0.00 46 1000.3
20260504230031 59 360 1.0 8.0 0.00 0.00 0.00 45 1000.3
20260504224530 59 360 2.0 11.0 0.00 0.00 0.00 49 1000.5
20260504223037 60 262 0.0 7.0 0.00 0.00 0.00 42 1000.6
20260504221527 60 36 0.0 5.0 0.00 0.00 0.00 42 1000.2
20260504220030 60 355 0.0 8.0 0.00 0.00 0.00 42 999.5
20260504214526 61 296 0.0 4.0 0.00 0.00 0.00 41 999.2
20260504213029 62 360 1.0 19.0 0.00 0.00 0.00 38 999.1
20260504211534 63 9 1.0 10.0 0.00 0.00 0.00 36 999.3
20260504210025 65 360 0.0 9.0 0.00 0.00 0.00 32 999.1
20260504204524 65 360 1.0 9.0 0.00 0.00 0.00 34 998.6
20260504203024 67 360 2.0 12.0 0.00 0.00 0.00 30 998.7
20260504201522 67 360 1.0 9.0 0.00 0.00 0.00 30 998.8
20260504200023 64 163 1.0 6.0 0.00 0.00 0.00 35 999.1
20260504194521 65 360 2.0 14.0 0.00 0.00 0.00 31 999.4
20260504193022 71 261 1.0 5.0 0.00 0.00 0.00 22 998.8
20260504191525 73 291 1.0 9.0 0.00 0.00 0.00 21 998.3
20260504190018 73 360 3.0 16.0 0.00 0.00 0.00 21 998.3
20260504184515 71 360 1.0 8.0 0.00 0.00 0.00 24 998.5
20260504183014 72 360 2.0 10.0 0.00 0.00 0.00 23 998.7
20260504181512 71 360 2.0 15.0 0.00 0.00 0.00 25 998.7
20260504180009 71 360 1.0 15.0 0.00 0.00 0.00 25 999.0
20260504174505 69 360 3.0 15.0 0.00 0.00 0.00 26 999.4
20260504173001 68 360 1.0 11.0 0.00 0.00 0.00 28 999.7
20260504171558 67 306 1.0 15.0 0.00 0.00 0.00 28 1000.0
20260504081519 47 272 0.0 0.0 0.00 0.00 0.00 45 1000.8